Content
SEND FEEDBACK

Daily
Averages
Monthly
Summary
United States of America

LOUISVILLE, ALABAMA


Home > North America > United States > Alabama
Elevation: 47 feet     Latitude: 31 48N     Longitude: 085 33W

WEATHER
 
SELECT A DAY
Number of Records: 225,145;   Date Range: 1/1/95 - 7/26/14
 
SHARE

PRINT THIS DATA

[ ← Previous Day ]
WEATHER ALMANAC - FEBRUARY 13, 2013
[ Next Day → ]
[ °C ]   °F
Weather ElementAverageHighLow
Temperature55.4 °F62.6 °F (5:13 am)45.1 °F (11:58 pm)
Dewpoint52.8 °F60.8 °F (5:03 am)42.6 °F (11:58 pm)
Humidity91.6 %100 % (1:03 am)64 % (10:58 am)
Barometer29.86 in30.04 in (11:58 pm)29.76 in (2:13 am)
Wind Speed6.1 mph13.8 mph (5:48 am)
Wind Gust21.9 mph (5:13 am)
Weather ElementAverage
Visibility6.7 mi
Wind DirectionWSW (234.9 °)

Weather ElementTotal
Precipitation0.03 in
Heating Degree Days11.2 (Base 65)
Growing Degree Days3.9 (Base 50)
Averaged from 53 records on February 13, 2013
WEATHER CONDITIONS BREAKOUT
WIND DIRECTION BREAKOUT
WEATHER BY HOUR - FEBRUARY 13, 2013
[ °C ]   °F
Local TimeTemperatureDewpointHumidityBarometerVisibilityWind DirectionWind SpeedGust SpeedPrecipitationEventsConditions
1:03 AM57.2 °F57.2 °F100 %29.79 in8.0 miNW (320°)2.3 mphOvercast
1:08 AM57.2 °F57.2 °F100 %29.79 in8.0 miCalmOvercast
1:58 AM57.4 °F56.8 °F98 %29.77 in1.5 miEast (90°)2.3 mphScattered Clouds
2:03 AM57.2 °F57.2 °F100 %29.77 in1.2 miSE (130°)4.6 mphScattered Clouds
2:08 AM57.2 °F57.2 °F100 %29.77 in1.2 miSE (130°)4.6 mphMostly Cloudy
2:13 AM57.2 °F57.2 °F100 %29.76 in1.0 miESE (110°)2.3 mphMist
2:18 AM57.2 °F57.2 °F100 %29.76 in0.8 miEast (90°)2.3 mphMist
2:23 AM57.2 °F57.2 °F100 %29.76 in0.8 miCalmMist
2:28 AM57.2 °F57.2 °F100 %29.76 in0.5 miCalmFogFog
2:43 AM57.2 °F57.2 °F100 %29.77 in0.5 miCalmFogFog
2:58 AM57.2 °F57.2 °F100 %29.78 in0.5 miNW (320°)3.5 mphFogFog
3:03 AM57.2 °F57.2 °F100 %29.77 in0.5 miNNW (330°)2.3 mphFogFog
3:08 AM57.2 °F57.2 °F100 %29.77 in0.8 miNW (320°)1.2 mphMist
3:13 AM57.2 °F57.2 °F100 %29.77 in1.0 miCalmMist
3:18 AM57.2 °F57.2 °F100 %29.77 in1.2 miCalmPartly Cloudy
3:23 AM57.2 °F57.2 °F100 %29.77 in1.5 miCalmPartly Cloudy
3:38 AM57.2 °F57.2 °F100 %29.77 in2.5 miWNW (290°)2.3 mphPartly Cloudy
3:58 AM56.7 °F56.3 °F99 %29.79 in3.0 miSW (220°)2.3 mphClear
4:56 AM60.8 °F59.0 °F94 %29.81 in6.0 miWNW (300°)9.2 mphScattered Clouds
4:58 AM60.8 °F59.0 °F94 %29.82 in6.0 miWNW (290°)8.1 mphScattered Clouds
5:03 AM60.8 °F60.8 °F100 %29.80 in6.0 miWest (280°)11.5 mphMostly Cloudy
5:08 AM60.8 °F60.8 °F100 %29.81 in6.0 miWest (280°)12.7 mph20.7 mphMostly Cloudy
5:13 AM62.6 °F60.8 °F94 %29.81 in6.0 miWest (270°)12.7 mph21.9 mphMostly Cloudy
5:33 AM60.8 °F60.8 °F100 %29.82 in8.0 miWest (270°)11.5 mphOvercast
5:48 AM60.8 °F60.8 °F100 %29.83 in9.0 miWest (270°)13.8 mphMostly Cloudy
5:58 AM60.3 °F59.7 °F98 %29.84 in10.0 miWest (270°)9.2 mphMostly Cloudy
6:08 AM59.0 °F59.0 °F100 %29.84 in10.0 miWest (280°)8.1 mphScattered Clouds
6:58 AM57.9 °F56.3 °F94 %29.87 in10.0 miWest (260°)8.1 mphClear
7:58 AM59.5 °F54.5 °F83 %29.88 in10.0 miWest (270°)9.2 mphClear
8:58 AM59.5 °F50.5 °F72 %29.90 in10.0 miWest (280°)12.7 mph19.6 mphScattered Clouds
9:58 AM60.1 °F49.8 °F69 %29.89 in10.0 miWest (270°)8.1 mphPartly Cloudy
10:58 AM60.6 °F48.4 °F64 %29.91 in10.0 miWest (280°)12.7 mphPartly Cloudy
11:58 AM58.3 °F48.6 °F70 %29.92 in10.0 miWest (280°)9.2 mphScattered Clouds
12:58 PM57.4 °F45.7 °F65 %29.90 in10.0 miWest (280°)11.5 mphMostly Cloudy
1:17 PM57.2 °F46.4 °F67 %29.89 in10.0 miWest (260°)10.4 mphRainLight Rain
1:37 PM55.4 °F46.4 °F72 %29.87 in10.0 miWNW (290°)11.5 mphMostly Cloudy
1:58 PM54.0 °F47.3 °F78 %29.90 in10.0 miWest (280°)8.1 mph0.00 inOvercast
2:28 PM53.6 °F48.2 °F82 %29.91 in10.0 miWest (280°)8.1 mphRainLight Rain
2:58 PM52.0 °F48.2 °F87 %29.89 in10.0 miWest (280°)5.8 mph0.00 inRainLight Rain
3:31 PM51.8 °F48.2 °F88 %29.88 in10.0 miWNW (300°)6.9 mphRainLight Rain
3:33 PM51.8 °F48.2 °F88 %29.88 in10.0 miWNW (300°)5.8 mphRainLight Rain
3:58 PM50.4 °F48.4 °F93 %29.93 in9.0 miWNW (300°)10.4 mph0.02 inRainLight Rain
4:30 PM48.2 °F46.4 °F93 %29.92 in8.0 miNW (320°)5.8 mphRainRain
4:55 PM48.2 °F44.6 °F87 %29.93 in7.0 miNW (310°)9.2 mphRainLight Rain
5:16 PM48.2 °F46.4 °F93 %29.95 in10.0 miNW (320°)6.9 mphRainLight Rain
5:18 PM48.2 °F46.4 °F93 %29.93 in10.0 miNNW (330°)4.6 mphMostly Cloudy
5:23 PM48.2 °F44.6 °F87 %29.93 in10.0 miNW (310°)6.9 mphScattered Clouds
5:58 PM47.5 °F45.3 °F92 %29.96 in10.0 miNW (310°)6.9 mph0.01 inClear
6:58 PM47.3 °F45.0 °F92 %29.98 in10.0 miWNW (290°)1.2 mphClear
7:58 PM46.9 °F44.8 °F92 %29.99 in10.0 miWNW (300°)4.6 mphClear
8:58 PM46.6 °F44.4 °F92 %30.00 in10.0 miNW (310°)2.3 mphPartly Cloudy
9:58 PM46.0 °F44.1 °F93 %30.03 in10.0 miWest (280°)4.6 mphPartly Cloudy
11:58 PM45.1 °F42.6 °F91 %30.04 in10.0 miWNW (300°)4.6 mphClear
Hourly data recorded from KOZR, located miles away from Louisville, Alabama







STORIES FROM OUR PARTNERS